This demonstration page uses our WeatherBlox Daily Observations layout. Learn more.

Left ArrowRight Arrow

Hourly Observations for July 21, 2016

Temp ( °F °C ) Dew Point ( °F °C ) Humidity (%) Winds ( mph kmh ) Pressure ( in mb ) Visibility ( mi km ) Precip ( " mm )
12:15 am 00:15 Clear 82 27.6 63 17.3 53 53 S 7 11 29.83 1010 10 16 N/A
12:35 am 00:35 Clear 79 25.9 64 17.9 61 61 S 6 9 29.85 1011 10 16 N/A
12:55 am 00:55 Clear 79 25.9 64 17.7 61 61 S 9 15 29.85 1011 10 16 N/A
1:15 am 01:15 Clear 78 25.5 64 17.7 62 62 S 8 13 29.85 1011 10 16 N/A
1:35 am 01:35 Clear 78 25.6 64 17.5 61 61 S 9 15 29.85 1011 10 16 N/A
1:55 am 01:55 Clear 78 25.8 63 17.3 59 59 S 7 11 29.85 1011 10 16 N/A
2:15 am 02:15 Clear 79 26.1 63 17.3 58 58 S 7 11 29.85 1011 10 16 N/A
2:35 am 02:35 Clear 78 25.3 64 17.6 62 62 S 6 9 29.85 1011 10 16 N/A
2:55 am 02:55 Clear 76 24.7 64 17.6 65 65 S 6 9 29.85 1011 10 16 N/A
3:15 am 03:15 Clear 76 24.3 64 17.7 67 67 S 5 7 29.85 1011 10 16 N/A
3:35 am 03:35 Clear 75 24 64 18 69 69 S 10 17 29.85 1011 10 16 N/A
3:55 am 03:55 Clear 76 24.6 64 17.6 65 65 SSW 8 13 29.85 1011 10 16 N/A
4:15 am 04:15 Clear 77 25 64 17.5 63 63 SSW 7 11 29.85 1011 10 16 N/A
4:35 am 04:35 Clear 76 24.3 64 17.7 67 67 S 5 7 29.85 1011 10 16 N/A
4:55 am 04:55 Clear 73 23 64 18 74 74 S 5 7 29.88 1012 10 16 N/A
5:15 am 05:15 Clear 73 22.8 64 18 74 74 N N/A 29.88 1012 10 16 N/A
5:35 am 05:35 Clear 72 22.1 65 18.2 79 79 S 6 9 29.88 1012 10 16 N/A
5:55 am 05:55 Clear 71 21.7 65 18.2 81 81 SSW 6 9 29.88 1012 10 16 N/A
6:15 am 06:15 Clear 71 21.5 65 18.3 82 82 S 5 7 29.88 1012 10 16 N/A
6:35 am 06:35 Sunny 71 21.5 65 18.2 82 82 S 6 9 29.88 1012 10 16 N/A
6:55 am 06:55 Sunny 71 21.9 65 18.3 80 80 S 6 9 29.88 1012 10 16 N/A
7:15 am 07:15 Sunny 72 22.1 65 18.4 80 80 WSW 3 6 29.88 1012 10 16 N/A
7:35 am 07:35 Sunny 74 23.3 64 17.7 71 71 SW 5 7 29.85 1011 10 16 N/A
7:55 am 07:55 Sunny 75 24 64 17.5 67 67 SW 5 7 29.85 1011 10 16 N/A
8:15 am 08:15 Sunny 77 25.2 64 17.8 64 64 S 5 7 29.85 1011 10 16 N/A
8:35 am 08:35 Sunny 80 26.5 65 18.2 60 60 W 5 7 29.88 1012 10 16 N/A
8:55 am 08:55 Sunny 81 27.1 66 19 61 61 NW 6 9 29.85 1011 10 16 N/A
9:15 am 09:15 Sunny 82 27.6 67 19.2 60 60 N N/A 29.85 1011 10 16 N/A
9:35 am 09:35 Sunny 83 28.2 66 18.8 57 57 N N/A 29.85 1011 10 16 N/A
9:55 am 09:55 Sunny 85 29.4 65 18.4 52 52 N N/A 29.85 1011 10 16 N/A
10:15 am 10:15 Sunny 85 29.2 67 19.6 56 56 N N/A 29.85 1011 10 16 N/A
10:55 am 10:55 Sunny 84 29.1 69 20.7 61 61 NE 3 6 29.85 1011 10 16 N/A
11:15 am 11:15 Sunny 85 29.4 70 20.9 60 60 N N/A 29.85 1011 10 16 N/A
11:35 am 11:35 Sunny 87 30.4 69 20.7 56 56 N N/A 29.85 1011 10 16 N/A
11:55 am 11:55 Sunny 88 31.3 68 20.1 51 51 SSW 5 7 29.83 1010 10 16 N/A
12:15 pm 12:15 Sunny 88 31.1 70 21.3 56 56 S 3 6 29.83 1010 10 16 N/A
12:35 pm 12:35 Sunny 91 32.6 70 21.3 51 51 N N/A 29.83 1010 10 16 N/A
12:55 pm 12:55 Sunny 90 32 72 22.2 56 56 N N/A 29.83 1010 10 16 N/A
1:15 pm 13:15 Sunny 90 32.4 72 22 54 54 S 5 7 29.83 1010 10 16 N/A
1:35 pm 13:35 Sunny 90 32.2 71 21.6 54 54 SE 3 6 29.83 1010 10 16 N/A
1:55 pm 13:55 Sunny 91 32.9 71 21.9 52 52 SSE 5 7 29.83 1010 10 16 N/A
2:15 pm 14:15 Sunny 92 33.3 69 20.8 48 48 SSE 5 7 29.83 1010 10 16 N/A
2:35 pm 14:35 Sunny 92 33.5 70 20.9 48 48 SSE 6 9 29.83 1010 10 16 N/A
2:55 pm 14:55 Sunny 92 33.5 72 22.4 52 52 SE 10 17 29.80 1009 10 16 N/A
3:15 pm 15:15 Sunny 92 33.3 71 21.4 50 50 SSE 9 15 29.83 1010 10 16 N/A
3:35 pm 15:35 Sunny 93 34.1 71 21.4 47 47 S 9 15 29.77 1008 10 16 N/A
3:55 pm 15:55 Sunny 93 34 72 22.1 50 50 SSE 8 13 29.77 1008 10 16 N/A
4:15 pm 16:15 Sunny 94 34.3 73 22.9 51 51 SSE 8 13 29.77 1008 10 16 N/A
4:35 pm 16:35 Sunny 95 35 70 21.3 45 45 S 7 11 29.77 1008 10 16 N/A
4:55 pm 16:55 Sunny 95 35 72 22 47 47 S 9 15 29.77 1008 10 16 N/A
5:15 pm 17:15 Sunny 96 35.4 71 21.8 45 45 S 7 11 29.77 1008 10 16 N/A
5:35 pm 17:35 Sunny 95 35 71 21.9 46 46 S 5 7 29.77 1008 10 16 N/A
5:55 pm 17:55 Sunny 96 35.3 71 21.8 45 45 S 3 6 29.77 1008 10 16 N/A
6:15 pm 18:15 Sunny 95 35.1 70 21.1 44 44 ESE 5 7 29.77 1008 10 16 N/A
6:35 pm 18:35 Sunny 95 35.1 68 20.2 42 42 ESE 3 6 29.77 1008 10 16 N/A
6:55 pm 18:55 Sunny 95 35.1 69 20.5 42 42 N N/A 29.77 1008 10 16 N/A
7:15 pm 19:15 Sunny 94 34.2 74 23.5 54 54 NE 6 9 29.77 1008 10 16 N/A
7:35 pm 19:35 Sunny 92 33.2 77 24.9 62 62 NE 3 6 29.80 1009 10 16 N/A
7:55 pm 19:55 Sunny 91 32.8 78 25.5 65 65 NE 3 6 29.80 1009 10 16 N/A
8:15 pm 20:15 Sunny 89 31.7 80 26.4 74 74 NNE 3 6 29.80 1009 10 16 N/A
8:35 pm 20:35 Sunny 87 30.6 79 26 76 76 N 6 9 29.80 1009 10 16 N/A
8:55 pm 20:55 Sunny 85 29.6 78 25.8 80 80 N 5 7 29.83 1010 10 16 N/A
9:15 pm 21:15 Clear 84 28.7 78 25.5 83 83 N 6 9 29.83 1010 10 16 N/A
9:35 pm 21:35 Clear 83 28.1 77 25.1 84 84 NNE 5 7 29.83 1010 10 16 N/A
9:55 pm 21:55 Clear 82 27.8 76 24.5 82 82 N 6 9 29.83 1010 10 16 N/A
10:15 pm 22:15 Clear 81 27 76 24.3 85 85 NE 5 7 29.85 1011 10 16 N/A
10:35 pm 22:35 Clear 80 26.5 75 23.7 85 85 N N/A 29.88 1012 10 16 N/A
10:55 pm 22:55 Clear 80 26.5 74 23.3 83 83 N 3 6 29.88 1012 10 16 N/A
11:15 pm 23:15 Clear 78 25.5 74 23.2 87 87 N N/A 29.88 1012 10 16 N/A
11:35 pm 23:35 Clear 77 25.2 73 22.9 87 87 N N/A 29.88 1012 10 16 N/A
11:55 pm 23:55 Clear 76 24.6 73 22.5 88 88 WNW 3 6 29.88 1012 10 16 N/A

Powered by AerisWeather